Location: Newark
(45.9456°N, 15.4064°E)
Time: 00:29:21
(UTC+00:00)

Transit 2A Rocket - Pass Details

Date: 26 January 2020
Orbit: 591 x 912 km, 66.7° (Epoch: 27 February)

Event Time Altitude Azimuth Distance (km) Brightness Sun altitude
Exits shadow 03:32:18 33° 100° (E) 1,003 6.1 -30.4°
Drops below altitude 10° 03:35:45 10° 50° (NE) 1,941 7.7 -29.8°
Sets 03:38:10 0° 41° (NE) 2,869 8.6 -29.4°
